Regional Weather Roundup
Issued by NWS Goodland, KS

Home | Current Version | Previous Version | Text Only | Print | Product List | Glossary On
Versions: 1 2 3 4 5 6 7 8 9 10 11 12 13 14 15 16 17 18 19 20 21 22 23 24 25 26 27 28 29 30 31 32 33 34 35 36 37 38 39 40 41 42 43 44 45 46 47 48 49 50
000
ASUS43 KGLD 281608
RWRGLD

GOODLAND FORECAST AREA HOURLY WEATHER ROUNDUP
NATIONAL WEATHER SERVICE GOODLAND KS
1000 AM MDT FRI JUL 28 2017

...OFFICIAL OBSERVATIONS...

CITY           SKY/WX    TMP DP  RH WIND       PRES   REMARKS
GOODLAND KS    SUNNY     78  67  68 S16       30.11S
HILL CITY KS   SUNNY     80  67  64 VRB5      30.08S
IMPERIAL NEB   PTSUNNY   76  64  66 SW7       30.11S
MCCOOK NEB     PTSUNNY   77  65  66 SE8       30.09S
AKRON CO       SUNNY     79  63  57 S10       30.13S
BURLINGTON CO  CLOUDY    77  67  71 S15       30.14F
LIMON CO       SUNNY     73  64  73 S10       30.19F
$$

...UNOFFICIAL OBSERVATIONS...

CITY           SKY/WX    TMP DP  RH WIND       PRES   REMARKS
LENORA KS        N/A     78  32  18 MISG        N/A
NORTON KS      MOSUNNY   79  59  50 CALM      30.09
SHARON SPRINGS   N/A     78  69  74 S12G20      N/A
TRENTON NEB      N/A     81  32  17 S5          N/A
KIT CARSON CO    N/A     74  66  75 MISG        N/A
YUMA CO        PTSUNNY   77  61  57 S15       30.11S
$$




USA.gov is the U.S. government's official web portal to all federal, state and local government web resources and services.